Surat Thani, Thailand

5:10 AM ICT on August 24, 2016 (GMT +0700)
Surat Thani

Weather History for VTSB - November, 2012

Change the Weather History Date:

Sunday, November 11, 2012

  Actual Average Record
Temperature  
Mean Temperature 82 °F -  
Max Temperature 90 °F 85 °F - ()
Min Temperature 73 °F 72 °F - ()
Cooling Degree Days 16    
Growing Degree Days 32 (Base 50)    
Moisture  
Dew Point 77 °F    
Average Humidity 89    
Maximum Humidity 100    
Minimum Humidity 68    
Precipitation  
Precipitation 0.00 in 0.34 in - ()
Sea Level Pressure  
Sea Level Pressure 29.81 in    
Wind  
Wind Speed 2 mph ()    
Max Wind Speed 9 mph    
Max Gust Speed -    
Visibility 4.5 miles    
Events Rain , Thunderstorm    
T = Trace of Precipitation, MM = Missing Value Source: Averaged Metar Reports

Daily Weather History Graph

Daily Weather History Graph

Search for Another Location

Airport or City:

Trip Planner

Search our weather history database for the weather conditions in past years. The results will help you decide how hot, cold, wet, or windy it might be!

Date:

Astronomy

Nov. 11, 2012 Rise Set
Actual Time 6:15 AM ICT 5:59 PM ICT
Civil Twilight 5:53 AM ICT 6:21 PM ICT
Nautical Twilight 5:28 AM ICT 6:46 PM ICT
Astronomical Twilight 5:02 AM ICT 7:11 PM ICT
Moon 3:23 AM ICT (11/11) 3:38 PM ICT (11/11)
Length of Visible Light 12h 27m
Length of Day
11h 43m
Waning Crescent, 11% of the Moon is Illuminated
Nov 11
Waning Crescent
Nov 14
New
Nov 20
First Quarter
Nov 28
Full
Dec 6
Last Quarter

Hourly Weather History & Observations

Time (ICT) Temp. Heat Index Dew Point Humidity Pressure Visibility Wind Dir Wind Speed Gust Speed Precip Events Conditions
12:00 AM 77.0 °F - 77.0 °F 100% 29.86 in 3.7 mi Calm Calm - N/A   Partly Cloudy
1:00 AM 77 °F - 76 °F 95% 29.82 in 4 mi Calm Calm - -   Mist
6:00 AM 73.4 °F - 73.4 °F 100% 29.80 in 3.7 mi Calm Calm - N/A   Partly Cloudy
7:00 AM 74 °F - 73 °F 96% 29.81 in 4 mi Calm Calm - -   Mist
7:00 AM 75.2 °F - 75.2 °F 100% 29.83 in 3.7 mi Calm Calm - N/A   Partly Cloudy
8:00 AM 78.8 °F - 77.0 °F 94% 29.83 in 5.0 mi Calm Calm - N/A   Partly Cloudy
9:00 AM 82.4 °F 90.9 °F 77.0 °F 84% 29.86 in 6.2 mi NNE 3.5 mph - N/A   Partly Cloudy
10:00 AM 89.6 °F 104.7 °F 78.8 °F 70% 29.86 in 6.2 mi NNE 5.8 mph - N/A   Partly Cloudy
11:00 AM 87.8 °F 104.9 °F 80.6 °F 79% 29.86 in 6.2 mi NNE 8.1 mph - N/A   Scattered Clouds
12:00 PM 86.0 °F 96.9 °F 77.0 °F 74% 29.83 in 4.3 mi NE 9.2 mph - N/A Rain Rain
1:00 PM 85 °F - 76 °F 68% 29.80 in 5 mi Calm Calm - - Thunderstorm Thunderstorm
1:00 PM 80.6 °F 87.1 °F 77.0 °F 89% 29.80 in 6.2 mi SE 3.5 mph - N/A   Mostly Cloudy
2:00 PM 84.2 °F 94.1 °F 77.0 °F 79% 29.77 in 5.0 mi Calm Calm - N/A   Mostly Cloudy
3:00 PM 82.4 °F 90.9 °F 77.0 °F 84% 29.74 in 3.7 mi East 4.6 mph - N/A Rain Light Rain
4:00 PM 82.4 °F 90.9 °F 77.0 °F 84% 29.74 in 3.7 mi SE 4.6 mph - N/A   Overcast
5:00 PM 77.0 °F - 77.0 °F 100% 29.77 in 4.3 mi SSE 3.5 mph - N/A   Overcast
6:00 PM 77.0 °F - 77.0 °F 100% 29.77 in 3.7 mi SW 4.6 mph - N/A   Overcast
7:00 PM 79 °F - 77 °F 90% 29.79 in 4 mi Calm Calm - - Rain Light Rain
8:00 PM 77.0 °F - 77.0 °F 100% 29.83 in 3.7 mi South 2.3 mph - N/A   Overcast
9:00 PM 77.0 °F - 77.0 °F 100% 29.86 in 3.7 mi WSW 4.6 mph - N/A   Overcast